Location: Santa Giusta
(39.8800°N, 8.6069°E)
Time: 18:17:35
(UTC+00:00)

Atlas Centaur 2 - Pass Details

Date: 02 February 2023
Orbit: 459 x 1295 km, 30.4° (Epoch: 31 March)

Event Time Altitude Azimuth Distance (km) Brightness Sun altitude
Rises 19:58:01 0° 251° (WSW) 4,220 6.6 -37.1°
Reaches altitude 10° 20:01:05 10° 245° (WSW) 3,289 5.8 -37.6°
Enters shadow 20:06:43 37° 212° (SSW) 1,913 4.0 -38.7°
